Torna al catalogo

STARLINK-31758

AttivoComunicazioniVLEO
NORAD 59621·PAYLOAD·🇺🇸 United States

Lanciato Apr 28, 2024 da Cape Canaveral Space Force Station

Loading…

Prossimi Passaggi (prossime 24 ore)

TLE

AggiornatoSource: CelesTrak SupGP

Epoca: Sep 15, 2026, 02:26 UTC

1 59621C 24080W   26258.10187500 -.00020659  00000+0 -74820-3 0  2587
2 59621  43.0009  44.3743 0001594 269.6284 141.4851 15.27591225    16

Traccia STARLINK-31758 in tempo reale con AllMySat

Download on the App Store